Regional Weather Roundup
Issued by NWS Sioux Falls, SD

Home | Current Version | Previous Version | Text Only | Print | Product List | Glossary Off
Versions: 1 2 3 4 5 6 7 8 9 10 11 12 13 14 15 16 17 18 19 20 21 22 23 24 25 26 27 28 29 30 31 32 33 34 35 36 37 38 39 40 41 42 43 44 45 46 47 48 49 50

000
ASUS43 KFSD 211702
RWRFSD

WEATHER ROUNDUP FOR SE SOUTH DAKOTA/SW MINNESOTA/NW IOWA
NATIONAL WEATHER SERVICE SIOUX FALLS SD
1200 PM CDT SAT OCT 21 2017

NOTE: "FAIR" INDICATES FEW OR NO CLOUDS BELOW 12,000 FEET WITH NO
SIGNIFICANT WEATHER AND OR OBSTRUCTIONS TO VISIBILITY.


SDZ038>040-050-052>070-211800-
SOUTHEAST SOUTH DAKOTA

CITY           SKY/WX    TMP DP  RH WIND       PRES   REMARKS
BROOKINGS      CLOUDY    55  46  71 NW16G26   29.57R
CHAMBERLAIN    CLOUDY    51  41  69 NW25G37   29.76R
HURON          CLOUDY    56  42  59 NW16      29.64R
MADISON        CLOUDY    55  46  71 NW23G31   29.59R
MITCHELL       LGT RAIN  56  42  59 NW14G24   29.68R
SIOUX FALLS    CLOUDY    61  49  64 W22G29    29.58R
WINNER         CLOUDY    48  41  76 NW16G25   29.79R
YANKTON        CLOUDY    59  44  57 NW25G35   29.65R
$$

MNZ071-072-080-081-089-090-097-098-211800-
SOUTHWEST MINNESOTA

CITY           SKY/WX    TMP DP  RH WIND       PRES   REMARKS
FAIRMONT       CLOUDY    63  60  90 S23       29.66S
JACKSON        CLOUDY    63  59  88 S17G24    29.65S
MARSHALL       PTSUNNY   71  62  73 S23G31    29.54R
MONTEVIDEO     CLOUDY    72  63  73 SW18G28   29.52F
PIPESTONE      MOSUNNY   70  61  73 S17G30    29.55F
REDWOOD FALLS  CLOUDY    70  60  70 S24G31    29.57S
TRACY          CLOUDY    70  64  81 S15G21    29.57S
WORTHINGTON    CLOUDY    66  61  84 S10G21    29.61S
$$

IAZ001>003-012>014-020>022-031-032-NEZ013-014-SDZ071-211800-
NORTHWEST IOWA

CITY           SKY/WX    TMP DP  RH WIND       PRES   REMARKS
CHEROKEE       CLOUDY    68  63  85 S23G29    29.63S
DENISON        CLOUDY    68  63  83 S22G30    29.68S
ESTHERVILLE    CLOUDY    62  62 100 S15G28    29.65F
LE MARS        CLOUDY    72  63  73 S24G35    29.59S
ORANGE CITY    PTSUNNY   70  64  83 S21G29    29.60S
SHELDON        CLOUDY    70  63  78 S18G31    29.59S
SIOUX CITY     CLOUDY    71  63  75 S13G20    29.61S
SPENCER        CLOUDY    67  62  84 S23G29    29.63F
STORM LAKE     CLOUDY    68  63  83 S28G36    29.65S
$$

ABBREVIATIONS USED IN REMARKS
   TC - TEMPERATURE IN CELSIUS
  WCI - WIND CHILL INDEX
   HX - HEAT INDEX
  VSB - VISIBILITY





USA.gov is the U.S. government's official web portal to all federal, state and local government web resources and services.